Weather in Posevnaya

Russia / Novosibirsk Oblast     54°17′59″N   83°19′48″E
temp.,
°C
wind,
m/s
gust,
m/s
humid.,
%
clouds,
%
prec.,
mm/h
press.,
hPa
HPBL,
m
14 august, sun
sun1401:00+14wsw49880 1.5 1007144
04:00+13sw4109023 0.0 1006159
07:00+15ssw6158197 0.0 1005410
10:00+16wsw81379100 0.8 1005915
13:00+22w1014353 0.8 10052285
16:00+19wnw913456 0.0 10071691
19:00+19wnw7104520 0.0 10071885
22:00+13w4107518 0.0 1009258
15 august, mon
mon1501:00+11w388898 0.2 1009177
04:00+10w410915 0.0 1009263
07:00+9w411940 0.0 1010326
10:00+14wnw69625 0.0 1011991
13:00+18wnw7104194 0.0 10102165
16:00+17wnw81139100 0.0 10112260
19:00+15nw61048100 0.0 10121475
22:00+12nw594933 0.0 10131032
16 august, tue
tue1601:00+7w486612 0.0 1013142
04:00+6w49805 0.0 1013172
07:00+5w410862 0.0 1014268
10:00+11wnw68505 0.0 10141221
13:00+14wnw683720 0.0 10141940
16:00+15nnw783645 0.0 10131994
19:00+14nnw56385 0.0 10131543
22:00+8n336055 0.0 101442
17 august, wed
wed1701:00+7nw0165100 0.0 101410
04:00+6sw226937 0.0 101321
07:00+6sw236532 0.0 101251
10:00+13ssw3343100 0.0 1011681
13:00+15ssw3336100 0.0 10101983
16:00+15sw3340100 0.0 10091952
19:00+9nw3393100 1.7 1010171
22:00+8n4797100 2.1 1011358
18 august, thu
thu1801:00+8nnw3697100 3.4 1011335
04:00+7wnw3796100 0.8 1011418
07:00+7nw6109597 1.5 1012544
10:00+9wnw687891 0.0 1014928
13:00+14nw574983 0.3 10141781
16:00+14wnw4544100 0.4 10141872
19:00+14wnw234382 0.4 10141703
22:00+9se116143 0.0 101510